Probability
0 0 0 0 0 0 0 0 0 0 0 0 0 0 0 0 0 0 0 0 0 0 0 0 0 0 0 0 0 0 0 0 0 0 0 0 0 0 0 0 0 0 0
0 0 0 0 0 0 0 0 0 0 0 0 0 0 0 0 0 0 0 0 0 0 0 0 0 0 0 0 0 0 0 0 0 0 0 0 0 0 0 0 0 0 0
0 0 0 0 0 0 0 0 0 0 0 0 0 0 0 0 0 0 0 0 0 0 0 0 0 0 0 0 0 0 0 0 0 0 0 0 0 0 0 0 0 0 0
0 0 0 0 0 0 0 0 0 0 0 0 0 0 0 0 0 0 0 0 0 0 0 0 0 0 0 0 0 0 0 0 0 0 0 0 0 0 0 0 0 0 0
0 0 0 0 0 0 0 0 0 0 0 0 0 0 0 0 0 0 0 0 0 0 0 0 0 0 0 0 0 0 0 0 0 0 0 0 0 0 0 0 0 0 0
0 0 0 0 0 0 0 0 0 0 0 0 0 0 0 0 0 0 0 0 0 0 0 0 0 0 0 0 0 0 0 0 0 0 0 0 0 0 0 0 0 0 0
0 0 0 0 0 0 0 0 0 0 0 0 0 0 0 0 0 0 0 0 0 0 0 0 0 0 0 0 0 0 0 0 0 0 0 0 0 0 0 0 0 0 0
0 0 0 0 0 0 0 0 0 0 0 0 0 0 0 0 0 0 0 0 0 0 0 0 0 0 0 0 0 0 0 0 0 0 0 0 0 0 0 0 0 0 0
0 0 0 0 0 0 0 0 0 0 0 0 0 0 0 0 0 0 0 0 0 0 0 0 0 0 0 0 0 0 0 0 0 0 0 0 0 0 0 0 0 0 0
0 0 0 0 0 0 0 0 0 0 0 0 0 0 0 0 0 0 0 0 0 0 0 0 0 0 0 0 0 0 0 0 0 0 0 0 0 0 0 0 0 0 0
0 0 0 0 0 0 0 0 0 0 0 0 0 0 0 0 0 0 0 0 0 0 0 0 0 0 0 0 0 0 0 0 0 0 0 0 0 0 0 0 0 0 0
0 0 0 0 0 0 0 0 0 0 0 0 0 0 0 0 0 0 0 0 0 0 0 0 0 0 0 0 0 0 0 0 0 0 0 0 0 0 0 0 0 0 0
0 0 0 0 0 0 0 0 0 0 0 0 0 0 0 0 0 0 0 0 0 0 0 0 0 0 0 0 0 0 0 0 0 0 0 0 0 0 0 0 0 0 0
0 0 0 0 0 0 0 0 0 0 0 0 0 0 0 0 0 0 0 0 0 0 0 0 0 0 0 0 0 0 0 0 0 0 0 0 0 0 0 0 0 0 0
0 0 0 0 0 0 0 0 0 0 0 0 0 0 0 0 0 0 0 0 0 0 0 0 0 0 0 0 0 0 0 0 0 0 0 0 0 0 0 0 0 0 0
0 0 0 0 0 0 0 0 0 0 0 0 0 0 0 0 0 0 0 0 0 0 0 0 0 0 0 0 0 0 0 0 0 0 0 0 0 0 0 0 0 0 0
0 0 0 0 0 0 0 0 0 0 0 0 0 0 0 0 0 0 0 0 0 0 0 0 0 0 0 0 0 0 0 0 0 0 0 0 0 0 0 0 0 0 0
0 0 0 0 0 0 0 0 0 0 0 0 0 0 0 0 0 0 0 0 0 0 0 0 0 0 0 0 0 0 0 0 0 0 0 0 0 0 0 0 0 0 0
0 0 0 0 0 0 0 0 0 0 0 0 0 0 0 0 0 0 0 0 0 0 0 0 0 0 0 0 0 0 0 0 0 0 0 0 0 0 0 0 0 0 0
0 0 0 0 0 0 0 0 0 0 0 0 0 0 0 0 0 0 0 0 0 0 0 0 0 0 0 0 0 0 0 0 0 0 0 0 0 0 0 0 0 0 0
0 0 0 0 0 0 0 0 0 0 0 0 0 0 0 0 0 0 0 0 0 0 0 0 0 0 0 0 0 0 0 0 0 0 0 0 0 0 0 0 0 0 0
0 0 0 0 0 0 0 0 0 0 0 0 0 0 0 0 0 0 0 0 0 0 0 0 0 0 0 0 0 0 0 0 0 0 0 0 0 0 0 0 0 0 0
0 0 0 0 0 0 0 0 0 0 0 0 0 0 0 0 0 0 0 0 0 0 0 0 0 0 0 0 0 0 0 0 0 0 0 0 0 0 0 0 0 0 0
0 0 0 0 0 0 0 0 0 0 0 0 0 0 0 0 0 0 0 0 0 0 0 0 0 0 0 0 0 0 0 0 0 0 0 0 0 0 0 0 0 0 0
0 0 0 0 0 0 0 0 0 0 0 0 0 0 0 0 0 0 0 0 0 0 0 0 0 0 0 0 0 0 0 0 0 0 0 0 0 0 0 0 0 0 0
0 0 0 0 0 0 0 0 0 0 0 0 0 0 0 0 0 0 0 0 0 0 0 0 0 0 0 0 0 0 0 0 0 0 0 0 0 0 0 0 0 0 0
Height
5883 5882 5881 5880 5879 5878 5877 5876 5875 5874 5873 5872 5870 5869 5868 5867 5865 5864 5863 5862 5861 5861 5860 5859 5859 5859 5859 5859 5859 5859 5860 5860 5860 5860 5859 5860 5861 5862 5864 5865 5866 5867 5868
5882 5881 5880 5879 5878 5877 5875 5874 5873 5871 5870 5868 5867 5866 5864 5863 5861 5860 5859 5857 5856 5855 5854 5853 5853 5852 5852 5852 5852 5852 5852 5853 5854 5854 5853 5853 5854 5855 5856 5858 5859 5861 5862
5881 5880 5879 5877 5876 5874 5873 5871 5869 5868 5866 5864 5863 5861 5860 5858 5856 5855 5853 5852 5850 5849 5848 5846 5846 5845 5844 5844 5844 5844 5844 5845 5845 5846 5846 5846 5847 5847 5848 5849 5851 5853 5854
5880 5878 5877 5875 5873 5871 5870 5868 5866 5864 5862 5860 5858 5856 5854 5852 5850 5849 5847 5845 5844 5842 5841 5840 5838 5837 5836 5835 5835 5834 5835 5835 5836 5837 5837 5837 5838 5838 5839 5840 5841 5843 5845
5878 5876 5874 5872 5870 5869 5867 5865 5862 5860 5858 5856 5853 5851 5849 5847 5844 5842 5840 5838 5836 5834 5833 5831 5830 5829 5828 5827 5825 5824 5824 5824 5825 5826 5826 5826 5827 5827 5828 5830 5831 5833 5835
5876 5874 5872 5870 5868 5865 5863 5861 5858 5856 5853 5851 5848 5846 5843 5840 5838 5835 5833 5830 5828 5825 5823 5821 5819 5818 5817 5816 5814 5813 5813 5812 5813 5813 5812 5813 5814 5814 5815 5817 5820 5822 5824
5874 5871 5869 5867 5864 5862 5859 5856 5854 5851 5848 5845 5843 5840 5837 5834 5831 5828 5825 5822 5819 5816 5813 5810 5808 5806 5804 5802 5801 5800 5799 5799 5800 5798 5798 5798 5798 5799 5800 5802 5805 5809 5812
5870 5868 5865 5863 5860 5857 5854 5851 5848 5845 5842 5839 5836 5833 5830 5826 5823 5819 5816 5813 5809 5806 5802 5799 5796 5792 5790 5787 5785 5784 5783 5783 5783 5782 5782 5782 5781 5781 5782 5785 5789 5793 5797
5867 5864 5861 5858 5855 5852 5849 5846 5843 5840 5836 5833 5829 5826 5822 5818 5814 5810 5806 5802 5798 5794 5790 5786 5781 5777 5772 5768 5765 5763 5762 5761 5760 5761 5761 5761 5760 5761 5762 5765 5769 5774 5779
5864 5860 5857 5854 5851 5848 5844 5841 5838 5834 5830 5827 5822 5818 5814 5809 5805 5801 5796 5791 5787 5782 5777 5771 5766 5760 5754 5748 5742 5738 5735 5733 5732 5732 5733 5733 5734 5736 5739 5742 5746 5752 5759
5860 5856 5853 5850 5846 5843 5839 5836 5832 5828 5824 5819 5815 5810 5805 5801 5796 5790 5785 5780 5775 5769 5763 5756 5749 5742 5735 5726 5718 5710 5704 5699 5696 5695 5697 5698 5700 5703 5708 5714 5720 5727 5735
5856 5852 5848 5845 5841 5838 5834 5830 5825 5821 5816 5812 5807 5801 5796 5791 5786 5780 5774 5768 5762 5755 5748 5740 5732 5723 5714 5704 5694 5683 5672 5662 5655 5652 5652 5654 5657 5663 5671 5679 5689 5698 5707
5852 5848 5844 5840 5836 5832 5828 5824 5819 5814 5809 5804 5799 5793 5787 5781 5775 5769 5763 5756 5748 5741 5732 5724 5714 5704 5693 5681 5668 5655 5640 5627 5615 5607 5604 5603 5608 5616 5626 5637 5650 5663 5676
5848 5844 5840 5836 5832 5827 5822 5817 5812 5807 5802 5796 5791 5784 5778 5772 5765 5758 5751 5744 5736 5727 5718 5708 5696 5683 5669 5654 5638 5621 5604 5589 5576 5567 5562 5558 5559 5565 5576 5588 5604 5620 5638
5845 5841 5837 5832 5828 5822 5817 5812 5807 5801 5795 5789 5783 5776 5769 5762 5755 5748 5740 5731 5722 5713 5703 5691 5678 5663 5646 5627 5606 5586 5567 5551 5538 5529 5524 5521 5521 5523 5530 5540 5555 5573 5594
5842 5838 5833 5828 5823 5818 5812 5807 5801 5795 5789 5782 5775 5768 5761 5753 5745 5737 5728 5719 5709 5698 5686 5673 5657 5639 5619 5597 5574 5552 5533 5517 5504 5494 5487 5485 5485 5487 5493 5502 5512 5527 5548
5838 5834 5829 5824 5818 5813 5807 5801 5795 5789 5782 5775 5767 5760 5752 5743 5735 5726 5716 5706 5695 5682 5669 5653 5634 5612 5589 5566 5544 5523 5504 5487 5473 5462 5454 5450 5449 5452 5457 5466 5477 5490 5506
5835 5830 5825 5819 5814 5808 5802 5795 5789 5782 5774 5766 5758 5750 5741 5732 5723 5713 5703 5691 5679 5665 5649 5631 5609 5585 5561 5538 5518 5498 5479 5463 5448 5435 5426 5421 5419 5419 5423 5431 5442 5456 5470
5831 5826 5820 5814 5808 5802 5796 5789 5781 5774 5766 5758 5749 5740 5731 5721 5711 5700 5688 5676 5662 5646 5627 5606 5582 5558 5535 5514 5494 5477 5458 5441 5426 5413 5402 5397 5394 5392 5394 5399 5409 5423 5440
5826 5821 5815 5809 5803 5796 5789 5781 5774 5766 5757 5748 5739 5729 5719 5709 5697 5685 5673 5659 5643 5626 5605 5582 5558 5534 5511 5490 5472 5456 5439 5420 5405 5392 5381 5375 5371 5369 5369 5372 5380 5392 5408
5821 5815 5809 5803 5796 5789 5782 5774 5765 5757 5748 5739 5729 5718 5707 5696 5684 5671 5657 5641 5624 5605 5583 5560 5537 5514 5492 5470 5452 5437 5423 5405 5388 5374 5363 5355 5350 5347 5346 5349 5355 5364 5378
5816 5810 5803 5797 5790 5782 5774 5766 5757 5748 5739 5729 5718 5707 5695 5683 5670 5656 5641 5624 5606 5585 5563 5539 5517 5496 5476 5453 5433 5416 5404 5394 5378 5362 5348 5338 5331 5326 5324 5326 5332 5341 5352
5810 5804 5798 5790 5783 5775 5766 5758 5749 5739 5729 5719 5708 5696 5683 5670 5656 5641 5625 5608 5588 5567 5544 5522 5500 5479 5461 5442 5418 5398 5381 5371 5363 5354 5338 5326 5316 5309 5305 5304 5309 5318 5329
5804 5798 5791 5783 5776 5767 5759 5749 5740 5730 5720 5709 5697 5684 5671 5657 5643 5627 5610 5592 5572 5550 5528 5506 5485 5464 5445 5429 5410 5389 5369 5352 5341 5335 5330 5317 5305 5296 5290 5287 5289 5297 5308
5798 5791 5784 5776 5768 5759 5750 5741 5731 5721 5710 5699 5686 5673 5659 5645 5630 5614 5596 5578 5557 5536 5514 5492 5472 5452 5433 5415 5398 5381 5364 5347 5330 5317 5313 5308 5298 5289 5281 5277 5276 5280 5290
5790 5783 5776 5768 5760 5751 5742 5733 5723 5712 5701 5689 5676 5663 5648 5633 5617 5601 5583 5564 5544 5522 5501 5481 5461 5442 5423 5405 5388 5371 5355 5340 5326 5312 5302 5295 5289 5283 5275 5270 5267 5269 5275
Wind_Speed
6 7 8 9 10 11 12 12 13 14 15 16 17 19 20 21 22 24 25 26 27 28 29 30 30 31 31 31 32 32 32 33 33 34 35 36 36 37 37 37 36 33 31
8 9 10 11 12 12 13 13 14 15 17 18 19 21 22 23 25 26 27 29 30 31 32 33 34 35 35 36 36 37 37 37 37 37 38 39 39 39 39 40 40 39 37
9 10 11 12 13 14 15 16 17 18 19 21 22 24 25 26 28 29 30 31 32 34 35 36 37 38 39 40 41 41 42 42 42 41 42 43 43 43 42 42 43 44 43
11 11 12 13 14 15 17 18 19 21 23 24 26 27 28 29 30 32 33 33 34 35 36 38 39 40 42 43 44 45 46 47 47 47 47 47 47 48 47 46 46 46 47
11 12 13 14 16 18 19 21 23 24 26 27 28 29 30 31 32 34 35 36 37 38 39 40 41 43 44 45 47 49 50 51 51 52 53 53 53 53 53 52 51 50 50
12 13 15 17 19 21 22 24 25 26 28 28 29 30 32 33 34 35 36 38 39 41 43 44 46 47 49 50 51 53 54 55 55 56 57 58 59 59 59 58 57 55 54
13 15 17 20 22 23 25 26 27 28 28 29 30 31 33 34 36 37 39 40 42 44 47 49 50 52 54 55 57 58 59 60 60 61 62 63 64 65 65 65 64 61 59
16 19 21 23 25 26 26 27 28 29 29 30 31 33 35 36 38 39 41 43 45 48 50 52 54 56 59 61 62 64 65 67 67 68 68 69 69 70 71 71 70 69 66
20 22 24 25 25 26 27 28 29 29 31 32 34 36 37 39 41 42 44 46 48 51 54 56 59 62 65 67 69 71 73 75 76 77 77 77 77 77 77 77 76 76 74
22 23 24 24 25 26 27 28 29 31 33 35 37 39 40 42 43 45 47 49 52 55 58 61 64 67 71 74 78 81 83 85 86 87 87 88 88 87 85 84 83 82 81
21 22 23 23 25 26 28 29 31 33 36 38 40 41 43 44 46 48 50 53 55 58 62 66 69 73 77 82 86 90 94 97 99 100 99 99 99 98 96 94 92 89 87
20 21 23 24 26 28 30 32 34 37 39 40 42 44 45 47 48 50 53 56 59 62 66 70 74 79 83 87 93 99 104 107 110 110 110 110 109 108 106 104 101 98 95
20 22 24 26 28 30 32 34 36 38 40 42 43 45 47 49 51 53 56 59 62 66 70 74 79 84 89 94 100 106 109 112 114 114 114 114 115 116 117 116 113 109 104
20 22 25 27 29 31 33 35 37 39 41 43 45 47 49 51 53 56 58 62 65 69 73 78 83 88 95 101 107 109 111 111 109 106 104 103 105 108 113 118 122 120 116
21 23 25 27 29 31 33 35 37 39 41 43 45 47 49 52 55 57 60 64 67 72 76 81 87 93 100 105 107 108 106 102 99 97 95 94 94 96 99 105 115 124 126
22 24 26 27 29 31 33 35 37 39 41 43 45 47 50 53 56 58 61 65 69 74 79 84 91 98 102 104 103 100 97 94 92 91 91 91 91 92 94 96 101 111 122
23 25 27 29 30 32 34 36 38 40 42 44 46 48 51 53 56 59 63 67 71 76 82 88 95 100 101 99 96 92 89 86 84 83 82 82 84 87 90 93 96 100 108
24 27 29 31 32 33 35 37 40 42 44 47 49 51 53 55 57 61 64 68 73 79 85 92 97 98 96 93 89 84 80 78 76 75 73 72 72 74 79 86 93 97 100
25 28 31 33 35 36 38 39 42 44 47 49 52 54 55 57 59 62 66 71 76 82 88 94 97 95 91 88 83 77 74 73 71 70 68 65 63 65 68 75 84 93 98
26 29 32 35 38 39 41 42 44 46 49 52 54 57 59 60 62 65 69 73 79 85 91 95 94 91 87 84 79 74 71 69 67 64 63 60 58 59 62 66 73 84 94
27 30 34 37 40 42 45 46 48 49 52 54 57 60 62 63 65 67 71 76 81 87 92 93 91 86 83 80 77 72 67 64 61 58 58 57 55 54 57 62 66 74 86
29 32 35 38 42 45 47 49 51 53 54 57 59 62 64 66 67 70 73 78 84 89 91 90 87 83 80 77 76 73 67 58 53 52 53 53 52 50 51 56 63 69 78
31 34 37 40 43 46 49 52 54 55 57 59 62 65 67 69 70 72 76 80 86 89 89 87 84 81 77 74 74 73 69 61 53 45 44 46 48 46 43 47 57 66 73
33 36 39 41 45 48 51 53 56 58 59 61 64 67 69 71 72 74 77 82 86 88 87 84 80 78 76 73 70 69 66 63 58 49 39 39 42 42 38 37 46 61 70
36 38 41 43 46 49 52 55 57 59 61 63 65 68 71 72 74 76 79 83 86 87 84 80 78 76 74 73 69 66 62 58 56 54 45 36 34 36 36 31 34 50 66
38 41 43 45 48 50 53 55 58 60 63 65 67 69 72 74 75 77 80 83 85 84 81 78 75 73 72 70 68 65 61 57 53 50 46 38 32 29 30 28 26 37 56
Wind_Direction
10 355 345 338 331 325 320 317 315 314 313 311 310 308 307 306 305 304 303 301 300 298 297 296 294 292 289 286 283 280 277 274 272 270 267 265 263 260 258 255 254 252 251
351 342 335 329 323 319 316 314 313 312 310 308 307 306 304 303 302 300 299 299 298 297 295 294 292 291 289 287 284 281 278 274 271 269 267 265 262 260 257 255 252 251 249
338 332 327 323 319 317 316 315 313 311 309 308 306 305 303 302 300 299 298 297 296 295 295 294 293 292 290 287 285 282 279 276 272 269 266 265 263 260 256 254 251 249 248
331 327 323 320 318 317 316 314 312 309 307 305 304 303 302 301 300 299 298 298 297 296 295 293 292 291 290 289 286 283 280 277 273 270 266 263 261 260 257 253 251 248 247
326 323 320 318 316 315 313 311 308 306 304 303 302 301 300 300 300 300 300 300 299 298 297 295 294 292 290 288 286 284 281 278 275 271 267 263 260 258 256 253 250 248 245
320 318 316 313 311 310 309 307 305 304 303 302 301 302 302 302 302 302 302 302 301 300 299 297 296 293 291 289 287 284 281 279 276 273 269 265 260 257 254 252 250 247 245
316 314 312 310 309 308 307 306 305 304 303 303 303 303 304 304 304 304 304 303 303 301 300 298 296 294 292 289 287 284 281 278 275 271 269 266 262 258 254 251 249 247 244
315 313 312 311 310 310 309 308 307 306 306 306 307 307 307 306 306 305 305 304 303 301 300 298 296 294 292 290 287 284 281 277 274 270 267 264 261 258 255 251 248 246 243
313 312 311 312 312 312 312 311 311 310 310 310 310 309 309 308 307 306 305 304 303 302 301 300 299 297 296 293 291 288 284 280 276 271 267 263 259 256 254 252 248 245 242
312 312 313 314 315 316 315 315 314 313 312 312 311 310 309 309 308 307 306 305 305 304 303 303 302 301 299 298 295 292 289 285 280 275 270 265 260 256 252 250 248 245 241
316 317 318 320 321 321 320 318 317 316 315 314 313 312 310 309 308 308 307 306 305 305 305 305 305 304 302 300 298 296 293 289 284 279 274 269 263 258 253 249 246 244 241
324 326 327 327 327 326 324 322 320 318 317 315 314 313 311 310 309 308 307 307 307 307 307 307 307 305 304 302 300 297 294 291 287 282 277 272 266 260 255 250 245 242 240
332 333 333 332 331 329 327 324 322 320 318 316 314 313 312 311 310 309 309 309 309 309 309 309 308 307 305 303 301 298 294 290 286 283 278 273 268 261 255 250 246 241 238
338 338 336 334 332 331 329 327 325 323 320 318 315 314 312 311 311 311 311 311 310 310 310 310 309 308 307 305 302 298 294 290 286 282 277 273 268 263 256 250 245 241 237
340 339 337 335 335 334 332 330 328 326 323 320 318 316 314 313 312 312 312 312 312 312 312 311 310 309 307 305 303 299 295 291 286 281 276 271 266 261 256 251 245 240 236
340 339 338 337 337 336 335 334 333 331 329 326 323 320 318 316 314 313 313 314 314 314 313 312 311 311 309 307 304 301 297 293 288 283 277 272 266 261 255 250 245 240 236
342 341 339 338 338 337 337 336 336 335 333 331 328 325 322 319 317 316 316 316 316 315 315 314 314 314 312 310 307 304 300 296 292 287 281 275 268 262 255 249 244 240 236
347 345 343 341 338 337 336 335 335 335 335 334 333 329 326 323 320 319 318 318 318 317 317 318 318 317 315 313 310 307 304 300 296 291 286 279 272 264 256 249 243 239 235
350 349 347 344 342 339 336 335 334 334 335 335 334 332 329 326 324 322 321 320 320 320 321 321 321 320 318 316 314 311 308 304 299 294 289 283 275 267 258 249 242 237 234
350 349 348 346 344 342 340 337 336 335 334 334 334 334 332 329 327 325 324 323 323 324 325 325 324 323 321 319 318 316 313 309 304 298 292 286 278 269 260 251 242 236 231
348 347 346 346 345 343 342 340 338 337 335 334 334 334 333 331 329 327 326 326 327 328 328 328 327 325 324 322 321 319 317 313 308 302 296 291 283 273 262 252 243 235 229
344 344 344 344 343 343 342 341 340 338 336 335 334 334 334 332 331 330 329 329 330 331 331 330 329 328 327 326 324 323 322 318 312 307 300 296 290 281 267 253 242 235 229
339 340 341 341 341 341 341 340 340 338 336 335 335 334 334 334 333 332 331 332 333 334 333 332 331 330 330 329 327 326 325 324 319 314 305 300 296 292 279 257 241 232 227
334 336 337 338 339 340 340 339 339 338 336 335 335 335 335 335 335 334 333 334 335 336 335 333 332 332 332 332 331 330 328 327 325 323 315 305 300 298 290 268 242 229 224
330 333 335 336 337 338 338 337 337 337 336 336 336 336 336 336 336 336 335 336 337 338 337 335 334 334 334 334 334 333 332 330 328 326 324 314 303 299 296 282 252 230 222
327 329 332 334 334 335 335 335 335 335 335 336 336 336 337 337 337 337 337 338 339 339 338 336 336 336 336 336 336 335 335 334 332 329 327 322 310 299 294 287 263 235 222